Date String (YYYY-MM-DD hh:mm:ss) UTC,Instrument flags,absolute air pressure of the measurement (hPa),sample flow rate (lpm),inlet stack bypass flow (lpm),air temperature of the measurement (°C),ambient temperature measured by the external sensor (°C),aerosol sample conditioner tube jacket temperature (°C),OPC LED temperature (°C),internal box temperature (°C),relative humidity of the measurement (%),span deviation,mass concentration of particles derived from Lorenz-Mie calculation of OPC scattering (μg/m³),mass concentration of particles derived from Lorenz-Mie calculation of OPC scattering (μg/m³),mass concentration of particles derived from Lorenz-Mie calculation of OPC scattering (μg/m³)
DateTimeUTC,F1_M11,P_M11,Q1_M11,Q2_M11,T1_M11,T2_M11,T3_M11,T4_M11,T5_M11,U1_M11,ZSPAN_M11,X0_M11,X2_M11,X1_M11
2024-03-31 20:00:00,SystemResetWarning,0816.9,5.01,000.00,021.3,020.7,000.0,029.8,023.1,25.3,0000.5,0016.14,0010.17,0009.29
2024-03-31 20:01:00,SystemResetWarning,0816.8,5.01,000.00,021.3,020.7,000.0,029.8,023.1,25.6,0000.4,0016.44,0010.15,0009.29
2024-03-31 20:02:00,SystemResetWarning,0816.8,5.01,000.00,021.3,020.7,000.0,029.8,023.2,25.7,0000.9,0016.98,0010.15,0009.30
2024-03-31 20:03:00,SystemResetWarning,0816.8,5.00,000.00,021.3,020.7,000.0,029.8,023.2,25.6,0001.2,0016.82,0010.16,0009.30
2024-03-31 20:04:00,SystemResetWarning,0816.8,4.99,000.00,021.3,020.7,000.0,029.8,023.2,25.4,0001.0,0016.84,0010.16,0009.31
2024-03-31 20:05:00,SystemResetWarning,0816.7,5.00,000.00,021.3,020.7,000.0,029.8,023.2,25.4,0001.0,0016.88,0010.17,0009.33
2024-03-31 20:06:00,SystemResetWarning,0816.5,5.01,000.00,021.4,020.7,000.0,029.8,023.2,25.5,0000.7,0017.46,0010.19,0009.36
2024-03-31 20:07:00,SystemResetWarning,0816.5,5.00,000.00,021.4,020.7,000.0,029.8,023.2,25.6,0000.7,0017.54,0010.27,0009.40
2024-03-31 20:08:00,SystemResetWarning,0816.4,5.01,000.00,021.4,020.8,000.0,029.8,023.2,25.8,0000.7,0017.30,0010.29,0009.42
2024-03-31 20:09:00,SystemResetWarning,0816.4,5.00,000.00,021.4,020.8,000.0,029.8,023.2,25.4,0000.7,0017.09,0010.24,0009.41
2024-03-31 20:10:00,SystemResetWarning,0816.3,5.00,000.00,021.4,020.8,000.0,029.8,023.2,25.3,0000.8,0017.58,0010.25,0009.43
2024-03-31 20:11:00,SystemResetWarning,0816.4,5.00,000.00,021.4,020.8,000.0,029.8,023.2,25.2,0000.8,0017.73,0010.23,0009.42
2024-03-31 20:12:00,SystemResetWarning,0816.5,5.00,000.00,021.4,020.8,000.0,029.8,023.2,25.4,0000.6,0017.44,0010.24,0009.44
2024-03-31 20:13:00,SystemResetWarning,0816.5,5.00,000.00,021.4,020.8,000.0,029.9,023.2,25.2,0000.8,0016.22,0010.22,0009.44
2024-03-31 20:14:00,SystemResetWarning,0816.7,5.00,000.00,021.4,020.8,000.0,029.9,023.2,24.8,0000.9,0016.08,0010.25,0009.45
2024-03-31 20:15:00,SystemResetWarning,0816.7,5.00,000.00,021.4,020.8,000.0,029.9,023.3,24.7,0001.0,0016.31,0010.24,0009.44
2024-03-31 20:16:00,SystemResetWarning,0816.7,5.00,000.00,021.4,020.9,000.0,029.9,023.2,24.8,0001.1,0016.99,0010.21,0009.41
2024-03-31 20:17:00,SystemResetWarning,0816.6,5.00,000.00,021.4,020.9,000.0,029.9,023.3,24.8,0001.5,0016.75,0010.20,0009.38
2024-03-31 20:18:00,SystemResetWarning,0816.5,4.99,000.00,021.4,020.9,000.0,029.9,023.3,24.6,0001.6,0016.71,0010.16,0009.35
2024-03-31 20:19:00,SystemResetWarning,0816.3,5.00,000.00,021.4,020.9,000.0,029.9,023.3,24.6,0001.7,0016.77,0010.14,0009.32
2024-03-31 20:20:00,SystemResetWarning,0816.1,5.01,000.00,021.4,020.9,000.0,029.9,023.3,25.0,0002.2,0017.35,0010.20,0009.35
2024-03-31 20:21:00,SystemResetWarning,0816.1,5.00,000.00,021.5,020.9,000.0,029.9,023.3,25.2,0002.5,0017.96,0010.22,0009.36
2024-03-31 20:22:00,SystemResetWarning,0816.0,5.00,000.00,021.5,020.9,000.0,029.9,023.3,25.2,0002.7,0018.62,0010.25,0009.38
2024-03-31 20:23:00,SystemResetWarning,0816.0,5.00,000.00,021.5,020.9,000.0,029.9,023.3,25.4,0002.9,0018.81,0010.28,0009.40
2024-03-31 20:24:00,SystemResetWarning,0816.1,5.00,000.00,021.5,020.9,000.0,029.9,023.3,25.3,0002.6,0019.07,0010.35,0009.41
2024-03-31 20:25:00,SystemResetWarning,0816.2,5.00,000.00,021.5,020.9,000.0,029.9,023.3,25.2,0002.7,0019.17,0010.35,0009.41
2024-03-31 20:26:00,SystemResetWarning,0816.2,5.00,000.00,021.5,020.9,000.0,029.9,023.3,25.4,0002.6,0019.05,0010.38,0009.43
2024-03-31 20:27:00,SystemResetWarning,0816.2,5.00,000.00,021.5,020.9,000.0,029.9,023.3,25.5,0002.4,0020.03,0010.41,0009.46
2024-03-31 20:28:00,SystemResetWarning,0816.4,4.99,000.00,021.5,020.9,000.0,029.9,023.3,25.5,0002.3,0020.12,0010.42,0009.47
2024-03-31 20:29:00,SystemResetWarning,0816.5,5.00,000.00,021.5,020.9,000.0,030.0,023.3,25.4,0002.1,0020.37,0010.40,0009.50
2024-03-31 20:30:00,SystemResetWarning,0816.5,5.00,000.00,021.5,020.9,000.0,030.0,023.3,25.5,0002.2,0020.53,0010.38,0009.52
2024-03-31 20:31:00,SystemResetWarning,0816.5,5.00,000.00,021.5,020.9,000.0,030.0,023.3,25.4,0001.9,0020.26,0010.38,0009.53
2024-03-31 20:32:00,SystemResetWarning,0816.4,5.01,000.00,021.5,020.9,000.0,030.0,023.3,25.3,0001.7,0019.98,0010.43,0009.55
2024-03-31 20:33:00,SystemResetWarning,0816.3,5.01,000.00,021.5,020.9,000.0,030.0,023.3,25.3,0001.5,0019.12,0010.45,0009.59
2024-03-31 20:34:00,SystemResetWarning,0816.2,5.00,000.00,021.5,020.9,000.0,030.0,023.3,25.4,0001.3,0020.73,0010.49,0009.62
2024-03-31 20:35:00,SystemResetWarning,0816.2,4.99,000.00,021.5,020.9,000.0,030.0,023.4,25.7,0001.2,0020.48,0010.44,0009.64
2024-03-31 20:36:00,SystemResetWarning,0816.1,5.00,000.00,021.5,020.9,000.0,030.0,023.4,25.5,0000.9,0020.30,0010.41,0009.65
2024-03-31 20:37:00,SystemResetWarning,0816.1,4.99,000.00,021.5,020.9,000.0,030.0,023.4,25.4,0000.9,0020.24,0010.40,0009.67
2024-03-31 20:38:00,SystemResetWarning,0816.2,4.99,000.00,021.5,020.9,000.0,030.0,023.4,25.3,0000.8,0019.04,0010.41,0009.68
2024-03-31 20:39:00,SystemResetWarning,0816.2,5.00,000.00,021.5,020.9,000.0,030.0,023.4,25.3,0000.9,0018.78,0010.43,0009.72
2024-03-31 20:40:00,SystemResetWarning,0816.2,5.01,000.00,021.6,021.0,000.0,030.0,023.4,25.3,0001.0,0018.51,0010.48,0009.73
2024-03-31 20:41:00,SystemResetWarning,0816.3,5.00,000.00,021.6,021.0,000.0,030.0,023.4,25.3,0000.8,0018.35,0010.55,0009.77
2024-03-31 20:42:00,SystemResetWarning,0816.3,5.01,000.00,021.6,021.0,000.0,030.0,023.4,25.2,0000.6,0018.25,0010.59,0009.80
2024-03-31 20:43:00,SystemResetWarning,0816.4,5.00,000.00,021.6,021.0,000.0,030.0,023.4,25.2,0000.4,0017.46,0010.59,0009.84
2024-03-31 20:44:00,SystemResetWarning,0816.3,5.01,000.00,021.6,021.0,000.0,030.0,023.4,25.3,0000.4,0016.85,0010.59,0009.85
2024-03-31 20:45:00,SystemResetWarning,0816.2,5.00,000.00,021.6,021.0,000.0,030.0,023.4,25.5,0000.6,0015.34,0010.60,0009.86
2024-03-31 20:46:00,SystemResetWarning,0816.2,4.99,000.00,021.6,021.0,000.0,030.1,023.4,25.3,0001.0,0015.90,0010.66,0009.88
2024-03-31 20:47:00,SystemResetWarning,0816.1,5.00,000.00,021.6,021.0,000.0,030.1,023.5,25.2,0000.8,0017.34,0010.72,0009.90
2024-03-31 20:48:00,SystemResetWarning,0816.1,5.00,000.00,021.6,021.0,000.0,030.1,023.4,25.1,0001.0,0017.77,0010.79,0009.92
2024-03-31 20:49:00,SystemResetWarning,0816.1,5.01,000.00,021.6,021.0,000.0,030.1,023.4,25.0,0000.9,0017.36,0010.83,0009.95
2024-03-31 20:50:00,SystemResetWarning,0816.1,5.00,000.00,021.6,021.0,000.0,030.1,023.4,25.0,0001.1,0017.63,0010.86,0009.95
2024-03-31 20:51:00,SystemResetWarning,0816.0,5.00,000.00,021.6,021.0,000.0,030.1,023.4,25.0,0001.0,0017.57,0010.86,0009.97
2024-03-31 20:52:00,SystemResetWarning,0816.0,4.99,000.00,021.6,021.0,000.0,030.1,023.4,24.9,0001.0,0017.61,0010.86,0009.97
2024-03-31 20:53:00,SystemResetWarning,0816.0,4.99,000.00,021.6,021.0,000.0,030.1,023.4,25.7,0001.2,0018.42,0010.88,0009.95
2024-03-31 20:54:00,SystemResetWarning,0816.0,4.99,000.00,021.6,021.0,000.0,030.1,023.4,25.3,0001.4,0019.22,0010.95,0009.93
2024-03-31 20:55:00,SystemResetWarning,0816.0,5.01,000.00,021.6,021.0,000.0,030.1,023.4,24.5,0001.5,0019.35,0010.93,0009.90
2024-03-31 20:56:00,SystemResetWarning,0816.0,5.00,000.00,021.6,021.0,000.0,030.1,023.5,24.7,0001.5,0019.14,0010.85,0009.86
2024-03-31 20:57:00,SystemResetWarning,0816.0,5.00,000.00,021.7,021.0,000.0,030.1,023.5,24.6,0001.4,0018.98,0010.84,0009.84
2024-03-31 20:58:00,SystemResetWarning,0815.9,5.00,000.00,021.7,021.0,000.0,030.1,023.5,24.7,0001.7,0018.15,0010.82,0009.84
2024-03-31 20:59:00,SystemResetWarning,0815.8,5.00,000.00,021.7,021.1,000.0,030.1,023.5,24.7,0001.6,0018.16,0010.81,0009.85
